Baton Rouge, LA

7:00 AM CST on December 03, 2016 (GMT -0600)
Baton Rouge Metro-Ryan

Weather History for KBTR - July, 2012

Change the Weather History Date:

Tuesday, July 31, 2012

  Actual Average Record
Temperature  
Mean Temperature 86 °F 83 °F  
Max Temperature 94 °F 93 °F 100 °F (1921)
Min Temperature 78 °F 74 °F 63 °F (1908)
Degree Days  
Heating Degree Days 0 0  
Month to date heating degree days 0 0  
Since 1 June heating degree days 0 0  
Since 1 July heating degree days 0 0  
Cooling Degree Days 21 18  
Month to date cooling degree days 576 556  
Year to date cooling degree days 1849 1605  
Since 1 June cooling degree days 1036 1040  
Growing Degree Days 36 (Base 50)    
Moisture  
Dew Point 75 °F    
Average Humidity 72    
Maximum Humidity 91    
Minimum Humidity 52    
Precipitation  
Precipitation 0.00 in 0.16 in 2.15 in (1980)
Month to date precipitation 6.60 4.96  
Year to date precipitation 37.87 35.89  
Snow  
Snow 0.00 in - - ()
Month to date snowfall 0.0  
Since 1 June snowfall 0.0  
Since 1 July snowfall 0.0  
Snow Depth 0.00 in    
Sea Level Pressure  
Sea Level Pressure 29.98 in    
Wind  
Wind Speed 7 mph (WSW)    
Max Wind Speed 14 mph    
Max Gust Speed 28 mph    
Visibility 10 miles    
Events      
T = Trace of Precipitation, MM = Missing Value Source: NWS Daily Summary

Daily Weather History Graph

Daily Weather History Graph

Search for Another Location

Airport or City:

Trip Planner

Search our weather history database for the weather conditions in past years. The results will help you decide how hot, cold, wet, or windy it might be!

Date:

Astronomy

Jul. 31, 2012 Rise Set
Actual Time 6:22 AM CDT 7:59 PM CDT
Civil Twilight 5:56 AM CDT 8:25 PM CDT
Nautical Twilight 5:24 AM CDT 8:56 PM CDT
Astronomical Twilight 4:51 AM CDT 9:29 PM CDT
Moon 6:48 PM CDT (7/31) 4:45 AM CDT (7/31)
Length of Visible Light 14h 29m
Length of Day
13h 36m
Waxing Gibbous, 97% of the Moon is Illuminated
Jul 31
Waxing Gibbous
Aug 1
Full
Aug 9
Last Quarter
Aug 17
New
Aug 24
First Quarter

Hourly Weather History & Observations

Time (CDT) Temp. Heat Index Dew Point Humidity Pressure Visibility Wind Dir Wind Speed Gust Speed Precip Events Conditions
12:53 AM 82.0 °F 88.6 °F 75.0 °F 79% 29.99 in 10.0 mi WSW 9.2 mph - N/A   Clear
1:53 AM 81.0 °F 86.7 °F 75.0 °F 82% 29.97 in 10.0 mi SW 9.2 mph - N/A   Clear
2:53 AM 80.1 °F 85.1 °F 75.0 °F 85% 29.95 in 10.0 mi WSW 10.4 mph - N/A   Clear
3:53 AM 80.1 °F 85.4 °F 75.9 °F 87% 29.95 in 10.0 mi West 6.9 mph - N/A   Clear
4:53 AM 79.0 °F - 75.9 °F 90% 29.97 in 10.0 mi WNW 4.6 mph - N/A   Clear
5:53 AM 79.0 °F - 75.9 °F 90% 30.00 in 10.0 mi West 3.5 mph - N/A   Clear
6:53 AM 79.0 °F - 75.9 °F 90% 30.00 in 10.0 mi WSW 5.8 mph - N/A   Clear
7:53 AM 81.0 °F 87.9 °F 77.0 °F 88% 30.01 in 10.0 mi West 10.4 mph - N/A   Clear
8:53 AM 82.9 °F 92.8 °F 78.1 °F 85% 30.02 in 10.0 mi West 12.7 mph 19.6 mph N/A   Overcast
9:00 AM 82.4 °F 90.9 °F 77.0 °F 84% 30.03 in 10.0 mi West 12.7 mph - N/A   Overcast
9:53 AM 86.0 °F 96.0 °F 75.9 °F 72% 30.02 in 10.0 mi West 11.5 mph - N/A   Mostly Cloudy
10:53 AM 89.1 °F 100.2 °F 75.9 °F 65% 30.01 in 10.0 mi West 12.7 mph - N/A   Scattered Clouds
11:53 AM 89.1 °F 99.1 °F 75.0 °F 63% 30.01 in 10.0 mi SW 9.2 mph - N/A   Scattered Clouds
12:53 PM 91.0 °F 101.6 °F 75.0 °F 59% 30.01 in 10.0 mi West 8.1 mph - N/A   Scattered Clouds
1:53 PM 91.4 °F 100.1 °F 73.4 °F 55% 30.00 in 10.0 mi WSW 3.5 mph - N/A   Scattered Clouds
2:53 PM 91.9 °F 101.3 °F 73.9 °F 55% 29.99 in 10.0 mi SW 9.2 mph - N/A   Scattered Clouds
3:53 PM 91.9 °F 101.3 °F 73.9 °F 55% 29.97 in 10.0 mi South 4.6 mph - N/A   Mostly Cloudy
4:53 PM 93.0 °F 103.2 °F 73.9 °F 54% 29.95 in 10.0 mi WNW 3.5 mph - N/A   Mostly Cloudy
5:53 PM 91.9 °F 101.3 °F 73.9 °F 55% 29.95 in 10.0 mi NW 3.5 mph - N/A   Clear
6:53 PM 90.0 °F 101.3 °F 75.9 °F 63% 29.95 in 10.0 mi West 3.5 mph - N/A   Scattered Clouds
7:53 PM 88.0 °F 98.5 °F 75.9 °F 67% 29.94 in 10.0 mi WSW 5.8 mph - N/A   Mostly Cloudy
8:53 PM 86.0 °F 96.0 °F 75.9 °F 72% 29.95 in 10.0 mi SW 5.8 mph - N/A   Clear
9:53 PM 84.9 °F 93.3 °F 75.0 °F 72% 29.96 in 10.0 mi SSW 6.9 mph - N/A   Clear
10:53 PM 84.0 °F 92.6 °F 75.9 °F 76% 29.97 in 10.0 mi SW 10.4 mph - N/A   Clear
11:53 PM 82.9 °F 91.8 °F 77.0 °F 82% 29.96 in 10.0 mi SSW 9.2 mph - N/A   Clear